DLH96 VTSP-EDDF

Flight info

Callsign DLH96
Flight time N/A
Altitude 34000
Route SATVA1A SATVA L759 KKJ J1 MEMID L760 DPN G333 MERUN L750 RANAH A846 RUBAD B475 DOLOS B449 MAMED P130 BODKA/N0494F360 P130 REBLO UM11 ARLAT DCT CRM UL746 ODERO DCT OPT DCT IRLOX DCT BUDOP/N0479F380 DCT UVERA DCT PEPIK DCT LIKSA DCT RAPET T170 VAGAB/N0472F240 T170 GAPLA T178 KERAX KERAX5A
Aircraft A35K/H-SDE2E3GHIJ3J4J5LM1ORWXY/LB1D1

Departure

Time 2026-05-05 19:37
Airport Phuket International Airport (VTSP)

Arrival

Time N/A
Airport Frankfurt Main Airport (EDDF)
Time Latitude Longitude Altitude Speed Heading
2026-05-05 18:52 8.10587 98.30448 33 ft 0 kts 105°
2026-05-05 19:28 8.10591 98.30434 33 ft 4 kts 105°
2026-05-05 19:28 8.10598 98.30407 32 ft 4 kts 101°
2026-05-05 19:28 8.10600 98.30382 31 ft 4 kts 66°
2026-05-05 19:28 8.10585 98.30370 32 ft 4 kts 15°
2026-05-05 19:29 8.10561 98.30364 31 ft 2 kts 15°
2026-05-05 19:29 8.10559 98.30363 32 ft 0 kts 15°
2026-05-05 19:31 8.10569 98.30366 32 ft 3 kts 16°
2026-05-05 19:32 8.10604 98.30376 32 ft 8 kts 15°
2026-05-05 19:32 8.10671 98.30388 32 ft 12 kts
2026-05-05 19:32 8.10759 98.30367 32 ft 14 kts 346°
2026-05-05 19:32 8.10851 98.30367 32 ft 13 kts 14°
2026-05-05 19:33 8.10927 98.30387 32 ft 8 kts 14°
2026-05-05 19:33 8.10976 98.30397 32 ft 7 kts
2026-05-05 19:33 8.11008 98.30390 32 ft 0 kts 336°
2026-05-05 19:34 8.11012 98.30388 32 ft 3 kts 334°
2026-05-05 19:34 8.11047 98.30367 32 ft 9 kts 339°
2026-05-05 19:35 8.11193 98.30378 32 ft 7 kts 67°
2026-05-05 19:35 8.11201 98.30413 32 ft 0 kts 81°
2026-05-05 19:36 8.11212 98.30504 33 ft 40 kts 84°
2026-05-05 19:36 8.11262 98.31034 35 ft 113 kts 85°
2026-05-05 19:36 8.11357 98.32043 64 ft 174 kts 85°
2026-05-05 19:36 8.11477 98.33345 632 ft 186 kts 84°
2026-05-05 19:37 8.11566 98.34625 1594 ft 179 kts 85°
2026-05-05 19:37 8.11651 98.35910 2237 ft 197 kts 84°
2026-05-05 19:37 8.11799 98.37361 2551 ft 213 kts 83°
2026-05-05 19:37 8.11969 98.38897 2745 ft 228 kts 84°
2026-05-05 19:38 8.12141 98.40546 2902 ft 244 kts 84°
2026-05-05 19:38 8.12314 98.42295 3200 ft 254 kts 84°
2026-05-05 19:38 8.12485 98.44083 3639 ft 257 kts 84°
2026-05-05 19:38 8.12654 98.45863 4141 ft 259 kts 84°
2026-05-05 19:39 8.12824 98.47663 4656 ft 260 kts 85°
2026-05-05 19:39 8.12996 98.49495 5112 ft 262 kts 85°
2026-05-05 19:39 8.13168 98.51335 5595 ft 264 kts 85°
2026-05-05 19:39 8.13342 98.53186 6092 ft 266 kts 85°
2026-05-05 19:40 8.13517 98.55052 6555 ft 268 kts 85°
2026-05-05 19:40 8.13716 98.56925 7027 ft 270 kts 82°
2026-05-05 19:40 8.14285 98.58740 7460 ft 275 kts 63°
2026-05-05 19:40 8.15474 98.60221 7922 ft 280 kts 41°
2026-05-05 19:41 8.17209 98.61156 8369 ft 288 kts 18°
2026-05-05 19:41 8.19212 98.61429 8864 ft 293 kts
2026-05-05 19:41 8.21257 98.61488 9361 ft 296 kts
2026-05-05 19:41 8.23326 98.61534 9837 ft 299 kts
2026-05-05 19:42 8.25431 98.61592 10142 ft 308 kts
2026-05-05 19:42 8.27615 98.61662 10383 ft 319 kts
2026-05-05 19:42 8.29851 98.61736 10749 ft 324 kts
2026-05-05 19:42 8.32118 98.61625 11169 ft 331 kts 351°
2026-05-05 19:43 8.34237 98.60776 11566 ft 338 kts 327°
2026-05-05 19:43 8.35914 98.59093 11850 ft 348 kts 302°
2026-05-05 19:43 8.36821 98.56804 12048 ft 358 kts 282°
2026-05-05 19:43 8.37311 98.54300 12238 ft 369 kts 280°
2026-05-05 19:44 8.37774 98.51719 12452 ft 379 kts 280°
2026-05-05 19:44 8.38262 98.49073 12642 ft 387 kts 280°
2026-05-05 19:44 8.38772 98.46373 12822 ft 396 kts 281°
2026-05-05 19:44 8.39300 98.43614 12999 ft 404 kts 281°
2026-05-05 19:45 8.39840 98.40807 13171 ft 411 kts 281°
2026-05-05 19:45 8.40384 98.37987 13336 ft 418 kts 281°
2026-05-05 19:45 8.40945 98.35087 13574 ft 422 kts 281°
2026-05-05 19:45 8.41509 98.32170 13803 ft 426 kts 281°
2026-05-05 19:46 8.42081 98.29221 14062 ft 429 kts 281°
2026-05-05 19:46 8.42653 98.26266 14362 ft 429 kts 281°
2026-05-05 19:46 8.43226 98.23304 14660 ft 430 kts 281°
2026-05-05 19:46 8.43801 98.20334 14945 ft 432 kts 281°
2026-05-05 19:47 8.44378 98.17354 15212 ft 433 kts 281°
2026-05-05 19:47 8.44949 98.14403 15472 ft 435 kts 281°
2026-05-05 19:47 8.45528 98.11405 15763 ft 436 kts 281°
2026-05-05 19:47 8.46108 98.08401 16032 ft 437 kts 281°
2026-05-05 19:48 8.46691 98.05383 16293 ft 438 kts 281°
2026-05-05 19:48 8.47275 98.02355 16535 ft 440 kts 281°
2026-05-05 19:48 8.47987 97.99350 16784 ft 441 kts 288°
2026-05-05 19:48 8.49242 97.96522 17002 ft 443 kts 302°
2026-05-05 19:49 8.51074 97.94082 17212 ft 443 kts 313°
2026-05-05 19:49 8.53231 97.91850 17479 ft 444 kts 317°
2026-05-05 19:49 8.55496 97.89725 17735 ft 445 kts 319°
2026-05-05 19:49 8.57814 97.87642 17942 ft 447 kts 320°
2026-05-05 19:50 8.60146 97.85561 18192 ft 448 kts 319°
2026-05-05 19:50 8.62479 97.83467 18432 ft 448 kts 319°
2026-05-05 19:50 8.64806 97.81353 18622 ft 450 kts 319°
2026-05-05 19:50 8.67121 97.79229 18874 ft 450 kts 318°
2026-05-05 19:51 8.69439 97.77087 19081 ft 452 kts 318°
2026-05-05 19:51 8.71730 97.74963 19252 ft 454 kts 318°
2026-05-05 19:51 8.74059 97.72802 19451 ft 455 kts 318°
2026-05-05 19:51 8.76394 97.70634 19671 ft 456 kts 318°
2026-05-05 19:52 8.78735 97.68461 19853 ft 457 kts 318°
2026-05-05 19:52 8.81083 97.66281 20049 ft 459 kts 318°
2026-05-05 19:52 8.83439 97.64095 20236 ft 460 kts 318°
2026-05-05 19:52 8.85806 97.61899 20426 ft 462 kts 318°
2026-05-05 19:53 8.88177 97.59702 20666 ft 463 kts 318°
2026-05-05 19:53 8.90549 97.57494 20834 ft 465 kts 318°
2026-05-05 19:53 8.92900 97.55300 21006 ft 467 kts 318°
2026-05-05 19:53 8.95288 97.53069 21178 ft 468 kts 318°
2026-05-05 19:54 8.97686 97.50828 21402 ft 470 kts 318°
2026-05-05 19:54 9.00089 97.48586 21641 ft 471 kts 318°
2026-05-05 19:54 9.02502 97.46335 21827 ft 472 kts 318°
2026-05-05 19:54 9.04918 97.44079 22012 ft 474 kts 318°
2026-05-05 19:55 9.07347 97.41812 22201 ft 476 kts 318°
2026-05-05 19:55 9.09784 97.39538 22422 ft 477 kts 318°
2026-05-05 19:55 9.12190 97.37291 22620 ft 478 kts 318°
2026-05-05 19:55 9.14643 97.35000 22815 ft 480 kts 318°
2026-05-05 19:56 9.17099 97.32707 23015 ft 482 kts 318°
2026-05-05 19:56 9.19565 97.30406 23221 ft 483 kts 318°
2026-05-05 19:56 9.22038 97.28095 23423 ft 484 kts 318°
2026-05-05 19:56 9.24518 97.25774 23574 ft 486 kts 318°
2026-05-05 19:57 9.27004 97.23450 23750 ft 487 kts 318°
2026-05-05 19:57 9.29497 97.21120 23930 ft 488 kts 318°
2026-05-05 19:57 9.31963 97.18815 24110 ft 489 kts 318°
2026-05-05 19:57 9.34463 97.16476 24282 ft 491 kts 318°
2026-05-05 19:58 9.36975 97.14126 24465 ft 492 kts 318°
2026-05-05 19:58 9.39492 97.11775 24659 ft 493 kts 318°
2026-05-05 19:58 9.42012 97.09420 24851 ft 494 kts 318°
2026-05-05 19:58 9.44543 97.07052 25049 ft 495 kts 318°
2026-05-05 19:59 9.47075 97.04681 25269 ft 497 kts 318°
2026-05-05 19:59 9.49613 97.02305 25480 ft 498 kts 318°
2026-05-05 19:59 9.52160 96.99920 25688 ft 499 kts 318°
2026-05-05 19:59 9.54680 96.97559 25901 ft 501 kts 318°
2026-05-05 20:00 9.57240 96.95158 26098 ft 502 kts 318°
2026-05-05 20:00 9.59807 96.92751 26320 ft 504 kts 318°
2026-05-05 20:00 9.62383 96.90336 26551 ft 505 kts 318°
2026-05-05 20:00 9.64962 96.87918 26746 ft 507 kts 318°
2026-05-05 20:01 9.67552 96.85490 26981 ft 508 kts 318°
2026-05-05 20:01 9.70146 96.83057 27199 ft 509 kts 318°
2026-05-05 20:01 9.72717 96.80645 27416 ft 511 kts 318°
2026-05-05 20:01 9.75327 96.78196 27645 ft 512 kts 318°
2026-05-05 20:02 9.77948 96.75737 27880 ft 513 kts 318°
2026-05-05 20:02 9.80564 96.73280 28175 ft 513 kts 318°
2026-05-05 20:02 9.83185 96.70817 28382 ft 514 kts 318°
2026-05-05 20:02 9.85813 96.68349 28550 ft 516 kts 318°
2026-05-05 20:03 9.88446 96.65876 28813 ft 516 kts 318°
2026-05-05 20:03 9.91075 96.63407 29148 ft 514 kts 318°
2026-05-05 20:03 9.93693 96.60944 29445 ft 513 kts 318°
2026-05-05 20:03 9.96269 96.58521 29728 ft 512 kts 318°
2026-05-05 20:04 9.98874 96.56059 29978 ft 512 kts 317°
2026-05-05 20:04 10.01322 96.53440 30169 ft 512 kts 313°
2026-05-05 20:04 10.03711 96.50755 30361 ft 512 kts 313°
2026-05-05 20:04 10.06072 96.48056 30559 ft 512 kts 313°
2026-05-05 20:05 10.08423 96.45345 30764 ft 512 kts 312°
2026-05-05 20:05 10.10770 96.42627 30886 ft 513 kts 312°
2026-05-05 20:05 10.13121 96.39906 31091 ft 512 kts 312°
2026-05-05 20:05 10.15436 96.37227 31323 ft 510 kts 312°
2026-05-05 20:06 10.17772 96.34528 31659 ft 507 kts 312°
2026-05-05 20:06 10.20096 96.31849 31830 ft 506 kts 312°
2026-05-05 20:06 10.22424 96.29161 31953 ft 507 kts 312°
2026-05-05 20:06 10.24748 96.26475 32141 ft 506 kts 312°
2026-05-05 20:07 10.27068 96.23790 32308 ft 505 kts 312°
2026-05-05 20:07 10.29386 96.21111 32522 ft 505 kts 312°
2026-05-05 20:07 10.31695 96.18440 32784 ft 502 kts 312°
2026-05-05 20:07 10.33997 96.15775 32950 ft 502 kts 312°
2026-05-05 20:08 10.36269 96.13146 33086 ft 502 kts 312°
2026-05-05 20:08 10.38569 96.10485 33235 ft 501 kts 312°
2026-05-05 20:08 10.40870 96.07823 33393 ft 500 kts 312°
2026-05-05 20:08 10.43164 96.05170 33559 ft 499 kts 312°
2026-05-05 20:09 10.45451 96.02524 33727 ft 499 kts 312°
2026-05-05 20:09 10.50030 95.97222 33834 ft 501 kts 312°
2026-05-05 20:10 10.54648 95.91873 33837 ft 504 kts 311°
2026-05-05 20:10 10.59238 95.86555 33835 ft 504 kts 311°
2026-05-05 20:11 10.63858 95.81200 33832 ft 504 kts 311°
2026-05-05 20:11 10.68475 95.75842 33831 ft 504 kts 311°
2026-05-05 20:12 10.73058 95.70517 33831 ft 503 kts 311°
2026-05-05 20:12 10.77675 95.65156 33832 ft 504 kts 311°
2026-05-05 20:13 10.82297 95.59790 33824 ft 504 kts 311°
2026-05-05 20:13 10.86916 95.54422 33826 ft 504 kts 311°
2026-05-05 20:14 10.91502 95.49085 33829 ft 504 kts 311°
2026-05-05 20:14 10.96121 95.43711 33829 ft 505 kts 311°
2026-05-05 20:15 11.00732 95.38341 33829 ft 503 kts 311°
2026-05-05 20:15 11.05334 95.32980 33825 ft 503 kts 311°
2026-05-05 20:16 11.09899 95.27660 33829 ft 503 kts 311°
2026-05-05 20:16 11.14506 95.22289 33827 ft 503 kts 311°
2026-05-05 20:17 11.19104 95.16924 33826 ft 503 kts 311°
2026-05-05 20:17 11.23704 95.11552 33826 ft 503 kts 311°
2026-05-05 20:18 11.28267 95.06219 33825 ft 503 kts 311°
2026-05-05 20:18 11.32887 95.00839 33826 ft 505 kts 311°
2026-05-05 20:19 11.37498 94.95443 33826 ft 505 kts 311°
2026-05-05 20:19 11.42091 94.90054 33827 ft 503 kts 311°
2026-05-05 20:20 11.46654 94.84705 33822 ft 503 kts 311°
2026-05-05 20:20 11.51256 94.79322 33819 ft 503 kts 311°
2026-05-05 20:21 11.55853 94.73940 33826 ft 504 kts 311°
2026-05-05 20:21 11.60457 94.68542 33825 ft 505 kts 311°
2026-05-05 20:22 11.65056 94.63147 33825 ft 503 kts 311°
2026-05-05 20:22 11.69618 94.57802 33820 ft 503 kts 311°
2026-05-05 20:23 11.74211 94.52405 33820 ft 504 kts 311°
2026-05-05 20:23 11.78810 94.46999 33820 ft 504 kts 311°
2026-05-05 20:24 11.83405 94.41598 33818 ft 504 kts 311°
2026-05-05 20:24 11.88219 94.36481 33825 ft 503 kts 317°
2026-05-05 20:25 11.93321 94.31607 33826 ft 503 kts 317°
2026-05-05 20:25 11.98407 94.26704 33821 ft 503 kts 316°
2026-05-05 20:26 12.03445 94.21746 33820 ft 502 kts 316°
2026-05-05 20:26 12.08410 94.16809 33817 ft 501 kts 316°
2026-05-05 20:27 12.13404 94.11838 33817 ft 501 kts 316°
2026-05-05 20:27 12.18403 94.06866 33818 ft 501 kts 316°
2026-05-05 20:28 12.23399 94.01897 33818 ft 501 kts 316°
2026-05-05 20:28 12.28386 93.96988 33817 ft 501 kts 317°
2026-05-05 20:29 12.33416 93.92050 33816 ft 501 kts 317°
2026-05-05 20:29 12.38443 93.87110 33818 ft 501 kts 317°
2026-05-05 20:30 12.43422 93.82201 33819 ft 500 kts 317°
2026-05-05 20:30 12.48437 93.77257 33818 ft 501 kts 317°